Time,TemperatureF,DewpointF,PressureIn,WindDirection,WindDirectionDegrees,WindSpeedMPH,WindSpeedGustMPH,Humidity,HourlyPrecipIn,Conditions,Clouds,dailyrainin,SoftwareType,DateUTC
2013-12-14 00:07:00,5.0,-4.8,30.33,North,-999,-999.0,-999.0,63,-99.99,,,-99.99,Acu-Link.com,2013-12-14 05:07:00,
2013-12-14 00:22:00,5.0,-4.8,30.34,North,-999,-999.0,-999.0,63,-99.99,,,-99.99,Acu-Link.com,2013-12-14 05:22:00,
2013-12-14 00:37:00,4.8,-4.6,30.33,North,-999,-999.0,-999.0,64,-99.99,,,-99.99,Acu-Link.com,2013-12-14 05:37:00,
2013-12-14 00:52:00,4.5,-5.0,30.33,North,-999,-999.0,-999.0,64,-99.99,,,-99.99,Acu-Link.com,2013-12-14 05:52:00,
2013-12-14 01:07:00,4.3,-5.2,30.32,North,-999,-999.0,-999.0,64,-99.99,,,-99.99,Acu-Link.com,2013-12-14 06:07:00,
2013-12-14 01:22:00,3.9,-5.5,30.33,North,-999,-999.0,-999.0,64,-99.99,,,-99.99,Acu-Link.com,2013-12-14 06:22:00,
2013-12-14 01:37:00,3.7,-5.7,30.34,North,-999,-999.0,-999.0,64,-99.99,,,-99.99,Acu-Link.com,2013-12-14 06:37:00,
2013-12-14 01:52:00,3.9,-5.5,30.35,North,-999,-999.0,-999.0,64,-99.99,,,-99.99,Acu-Link.com,2013-12-14 06:52:00,
2013-12-14 02:07:00,3.9,-5.5,30.36,North,-999,-999.0,-999.0,64,-99.99,,,-99.99,Acu-Link.com,2013-12-14 07:07:00,
2013-12-14 02:22:00,3.6,-5.8,30.37,North,-999,-999.0,-999.0,64,-99.99,,,-99.99,Acu-Link.com,2013-12-14 07:22:00,
2013-12-14 02:37:00,3.6,-5.8,30.37,North,-999,-999.0,-999.0,64,-99.99,,,-99.99,Acu-Link.com,2013-12-14 07:37:00,
2013-12-14 02:52:00,3.4,-6.0,30.38,North,-999,-999.0,-999.0,64,-99.99,,,-99.99,Acu-Link.com,2013-12-14 07:52:00,
2013-12-14 03:08:00,3.6,-5.8,30.38,North,-999,-999.0,-999.0,64,-99.99,,,-99.99,Acu-Link.com,2013-12-14 08:08:00,
2013-12-14 03:23:00,3.7,-5.7,30.38,North,-999,-999.0,-999.0,64,-99.99,,,-99.99,Acu-Link.com,2013-12-14 08:23:00,
2013-12-14 03:38:00,3.9,-5.5,30.38,North,-999,-999.0,-999.0,64,-99.99,,,-99.99,Acu-Link.com,2013-12-14 08:38:00,
2013-12-14 03:53:00,4.1,-5.3,30.39,North,-999,-999.0,-999.0,64,-99.99,,,-99.99,Acu-Link.com,2013-12-14 08:53:00,
2013-12-14 04:08:00,4.3,-5.2,30.39,North,-999,-999.0,-999.0,64,-99.99,,,-99.99,Acu-Link.com,2013-12-14 09:08:00,
2013-12-14 04:23:00,4.5,-4.7,30.39,North,-999,-999.0,-999.0,65,-99.99,,,-99.99,Acu-Link.com,2013-12-14 09:23:00,
2013-12-14 04:38:00,4.6,-4.5,30.39,North,-999,-999.0,-999.0,65,-99.99,,,-99.99,Acu-Link.com,2013-12-14 09:38:00,
2013-12-14 04:53:00,4.5,-4.7,30.39,North,-999,-999.0,-999.0,65,-99.99,,,-99.99,Acu-Link.com,2013-12-14 09:53:00,
2013-12-14 05:08:00,4.6,-4.5,30.40,North,-999,-999.0,-999.0,65,-99.99,,,-99.99,Acu-Link.com,2013-12-14 10:08:00,
2013-12-14 05:23:00,4.5,-4.7,30.40,North,-999,-999.0,-999.0,65,-99.99,,,-99.99,Acu-Link.com,2013-12-14 10:23:00,
2013-12-14 05:38:00,4.8,-4.3,30.41,North,-999,-999.0,-999.0,65,-99.99,,,-99.99,Acu-Link.com,2013-12-14 10:38:00,
2013-12-14 05:53:00,4.8,-4.3,30.41,North,-999,-999.0,-999.0,65,-99.99,,,-99.99,Acu-Link.com,2013-12-14 10:53:00,
2013-12-14 06:09:00,5.0,-4.5,30.42,North,-999,-999.0,-999.0,64,-99.99,,,-99.99,Acu-Link.com,2013-12-14 11:09:00,
2013-12-14 06:24:00,4.8,-4.3,30.43,North,-999,-999.0,-999.0,65,-99.99,,,-99.99,Acu-Link.com,2013-12-14 11:24:00,
2013-12-14 06:39:00,4.3,-4.8,30.43,North,-999,-999.0,-999.0,65,-99.99,,,-99.99,Acu-Link.com,2013-12-14 11:39:00,
2013-12-14 06:54:00,4.1,-5.3,30.44,North,-999,-999.0,-999.0,64,-99.99,,,-99.99,Acu-Link.com,2013-12-14 11:54:00,
2013-12-14 07:09:00,3.9,-5.5,30.45,North,-999,-999.0,-999.0,64,-99.99,,,-99.99,Acu-Link.com,2013-12-14 12:09:00,
2013-12-14 07:24:00,3.7,-5.7,30.46,North,-999,-999.0,-999.0,64,-99.99,,,-99.99,Acu-Link.com,2013-12-14 12:24:00,
2013-12-14 07:39:00,3.7,-5.7,30.46,North,-999,-999.0,-999.0,64,-99.99,,,-99.99,Acu-Link.com,2013-12-14 12:39:00,
2013-12-14 07:54:00,4.3,-5.2,30.46,North,-999,-999.0,-999.0,64,-99.99,,,-99.99,Acu-Link.com,2013-12-14 12:54:00,
2013-12-14 08:09:00,4.5,-5.0,30.47,North,-999,-999.0,-999.0,64,-99.99,,,-99.99,Acu-Link.com,2013-12-14 13:09:00,
2013-12-14 08:25:00,4.5,-5.0,30.48,North,-999,-999.0,-999.0,64,-99.99,,,-99.99,Acu-Link.com,2013-12-14 13:25:00,
2013-12-14 08:40:00,5.4,-4.1,30.49,North,-999,-999.0,-999.0,64,-99.99,,,-99.99,Acu-Link.com,2013-12-14 13:40:00,
2013-12-14 08:55:00,5.7,-3.8,30.49,North,-999,-999.0,-999.0,64,-99.99,,,-99.99,Acu-Link.com,2013-12-14 13:55:00,
2013-12-14 09:10:00,6.6,-2.9,30.49,North,-999,-999.0,-999.0,64,-99.99,,,-99.99,Acu-Link.com,2013-12-14 14:10:00,
2013-12-14 09:25:00,6.8,-3.1,30.50,North,-999,-999.0,-999.0,63,-99.99,,,-99.99,Acu-Link.com,2013-12-14 14:25:00,
2013-12-14 09:40:00,7.2,-2.7,30.50,North,-999,-999.0,-999.0,63,-99.99,,,-99.99,Acu-Link.com,2013-12-14 14:40:00,
2013-12-14 09:55:00,7.7,-2.2,30.50,North,-999,-999.0,-999.0,63,-99.99,,,-99.99,Acu-Link.com,2013-12-14 14:55:00,
2013-12-14 10:10:00,8.6,-1.4,30.50,North,-999,-999.0,-999.0,63,-99.99,,,-99.99,Acu-Link.com,2013-12-14 15:10:00,
2013-12-14 10:26:00,9.0,-1.4,30.50,North,-999,-999.0,-999.0,62,-99.99,,,-99.99,Acu-Link.com,2013-12-14 15:26:00,
2013-12-14 10:41:00,8.6,-1.7,30.50,North,-999,-999.0,-999.0,62,-99.99,,,-99.99,Acu-Link.com,2013-12-14 15:41:00,
2013-12-14 10:56:00,9.1,-1.2,30.49,North,-999,-999.0,-999.0,62,-99.99,,,-99.99,Acu-Link.com,2013-12-14 15:56:00,
2013-12-14 11:11:00,10.0,0.0,30.49,North,-999,-999.0,-999.0,63,-99.99,,,-99.99,Acu-Link.com,2013-12-14 16:11:00,
2013-12-14 11:26:00,10.0,-0.3,30.49,North,-999,-999.0,-999.0,62,-99.99,,,-99.99,Acu-Link.com,2013-12-14 16:26:00,
2013-12-14 11:41:00,10.0,-0.7,30.48,North,-999,-999.0,-999.0,61,-99.99,,,-99.99,Acu-Link.com,2013-12-14 16:41:00,
2013-12-14 11:56:00,10.2,-1.2,30.47,North,-999,-999.0,-999.0,59,-99.99,,,-99.99,Acu-Link.com,2013-12-14 16:56:00,
2013-12-14 12:11:00,12.0,0.5,30.47,North,-999,-999.0,-999.0,59,-99.99,,,-99.99,Acu-Link.com,2013-12-14 17:11:00,
2013-12-14 12:26:00,12.7,1.2,30.47,North,-999,-999.0,-999.0,59,-99.99,,,-99.99,Acu-Link.com,2013-12-14 17:26:00,
2013-12-14 12:41:00,11.1,-1.5,30.46,North,-999,-999.0,-999.0,56,-99.99,,,-99.99,Acu-Link.com,2013-12-14 17:41:00,
2013-12-14 12:56:00,10.9,-2.0,30.45,North,-999,-999.0,-999.0,55,-99.99,,,-99.99,Acu-Link.com,2013-12-14 17:56:00,
2013-12-14 13:11:00,10.0,-3.2,30.45,North,-999,-999.0,-999.0,54,-99.99,,,-99.99,Acu-Link.com,2013-12-14 18:11:00,
2013-12-14 13:26:00,9.3,-3.9,30.44,North,-999,-999.0,-999.0,54,-99.99,,,-99.99,Acu-Link.com,2013-12-14 18:26:00,
2013-12-14 13:42:00,9.5,-3.8,30.45,North,-999,-999.0,-999.0,54,-99.99,,,-99.99,Acu-Link.com,2013-12-14 18:42:00,
2013-12-14 13:57:00,9.1,-4.1,30.44,North,-999,-999.0,-999.0,54,-99.99,,,-99.99,Acu-Link.com,2013-12-14 18:57:00,
2013-12-14 14:12:00,9.1,-4.1,30.45,North,-999,-999.0,-999.0,54,-99.99,,,-99.99,Acu-Link.com,2013-12-14 19:12:00,
2013-12-14 14:27:00,8.8,-4.4,30.44,North,-999,-999.0,-999.0,54,-99.99,,,-99.99,Acu-Link.com,2013-12-14 19:27:00,
2013-12-14 14:42:00,8.1,-5.1,30.44,North,-999,-999.0,-999.0,54,-99.99,,,-99.99,Acu-Link.com,2013-12-14 19:42:00,
2013-12-14 14:57:00,7.7,-5.1,30.43,North,-999,-999.0,-999.0,55,-99.99,,,-99.99,Acu-Link.com,2013-12-14 19:57:00,
2013-12-14 15:12:00,7.9,-4.5,30.44,North,-999,-999.0,-999.0,56,-99.99,,,-99.99,Acu-Link.com,2013-12-14 20:12:00,
2013-12-14 15:27:00,7.7,-4.7,30.44,North,-999,-999.0,-999.0,56,-99.99,,,-99.99,Acu-Link.com,2013-12-14 20:27:00,
2013-12-14 15:42:00,7.5,-4.5,30.44,North,-999,-999.0,-999.0,57,-99.99,,,-99.99,Acu-Link.com,2013-12-14 20:42:00,
2013-12-14 15:57:00,8.1,-3.6,30.43,North,-999,-999.0,-999.0,58,-99.99,,,-99.99,Acu-Link.com,2013-12-14 20:57:00,
2013-12-14 16:12:00,7.7,-3.6,30.41,North,-999,-999.0,-999.0,59,-99.99,,,-99.99,Acu-Link.com,2013-12-14 21:12:00,
2013-12-14 16:27:00,7.3,-3.6,30.40,North,-999,-999.0,-999.0,60,-99.99,,,-99.99,Acu-Link.com,2013-12-14 21:27:00,
2013-12-14 16:42:00,7.7,-3.3,30.40,North,-999,-999.0,-999.0,60,-99.99,,,-99.99,Acu-Link.com,2013-12-14 21:42:00,
2013-12-14 16:57:00,7.7,-3.3,30.40,North,-999,-999.0,-999.0,60,-99.99,,,-99.99,Acu-Link.com,2013-12-14 21:57:00,
2013-12-14 17:13:00,7.7,-2.9,30.40,North,-999,-999.0,-999.0,61,-99.99,,,-99.99,Acu-Link.com,2013-12-14 22:13:00,
2013-12-14 17:28:00,7.7,-2.9,30.38,North,-999,-999.0,-999.0,61,-99.99,,,-99.99,Acu-Link.com,2013-12-14 22:28:00,
2013-12-14 17:43:00,7.9,-2.7,30.37,North,-999,-999.0,-999.0,61,-99.99,,,-99.99,Acu-Link.com,2013-12-14 22:43:00,
2013-12-14 17:58:00,7.9,-2.7,30.37,North,-999,-999.0,-999.0,61,-99.99,,,-99.99,Acu-Link.com,2013-12-14 22:58:00,
2013-12-14 18:13:00,7.9,-2.4,30.36,North,-999,-999.0,-999.0,62,-99.99,,,-99.99,Acu-Link.com,2013-12-14 23:13:00,
2013-12-14 18:28:00,7.5,-2.7,30.35,North,-999,-999.0,-999.0,62,-99.99,,,-99.99,Acu-Link.com,2013-12-14 23:28:00,
2013-12-14 18:43:00,7.5,-2.7,30.35,North,-999,-999.0,-999.0,62,-99.99,,,-99.99,Acu-Link.com,2013-12-14 23:43:00,
2013-12-14 18:58:00,7.9,-2.1,30.35,North,-999,-999.0,-999.0,63,-99.99,,,-99.99,Acu-Link.com,2013-12-14 23:58:00,
2013-12-14 19:13:00,8.1,-1.9,30.34,North,-999,-999.0,-999.0,63,-99.99,,,-99.99,Acu-Link.com,2013-12-15 00:13:00,
2013-12-14 19:28:00,8.2,-1.7,30.33,North,-999,-999.0,-999.0,63,-99.99,,,-99.99,Acu-Link.com,2013-12-15 00:28:00,
2013-12-14 19:43:00,8.4,-1.2,30.32,North,-999,-999.0,-999.0,64,-99.99,,,-99.99,Acu-Link.com,2013-12-15 00:43:00,
2013-12-14 19:58:00,8.6,-1.0,30.31,North,-999,-999.0,-999.0,64,-99.99,,,-99.99,Acu-Link.com,2013-12-15 00:58:00,
2013-12-14 20:13:00,8.6,-1.0,30.30,North,-999,-999.0,-999.0,64,-99.99,,,-99.99,Acu-Link.com,2013-12-15 01:13:00,
2013-12-14 20:29:00,8.6,-0.7,30.28,North,-999,-999.0,-999.0,65,-99.99,,,-99.99,Acu-Link.com,2013-12-15 01:29:00,
2013-12-14 20:44:00,8.6,-0.7,30.27,North,-999,-999.0,-999.0,65,-99.99,,,-99.99,Acu-Link.com,2013-12-15 01:44:00,
2013-12-14 20:59:00,8.6,-0.4,30.27,North,-999,-999.0,-999.0,66,-99.99,,,-99.99,Acu-Link.com,2013-12-15 01:59:00,
2013-12-14 21:14:00,9.0,0.0,30.26,North,-999,-999.0,-999.0,66,-99.99,,,-99.99,Acu-Link.com,2013-12-15 02:14:00,
2013-12-14 21:29:00,9.1,0.1,30.26,North,-999,-999.0,-999.0,66,-99.99,,,-99.99,Acu-Link.com,2013-12-15 02:29:00,
2013-12-14 21:44:00,9.3,0.6,30.25,North,-999,-999.0,-999.0,67,-99.99,,,-99.99,Acu-Link.com,2013-12-15 02:44:00,
2013-12-14 21:59:00,9.5,0.8,30.24,North,-999,-999.0,-999.0,67,-99.99,,,-99.99,Acu-Link.com,2013-12-15 02:59:00,
2013-12-14 22:14:00,9.7,1.3,30.22,North,-999,-999.0,-999.0,68,-99.99,,,-99.99,Acu-Link.com,2013-12-15 03:14:00,
2013-12-14 22:29:00,9.9,1.4,30.22,North,-999,-999.0,-999.0,68,-99.99,,,-99.99,Acu-Link.com,2013-12-15 03:29:00,
2013-12-14 22:44:00,9.9,2.1,30.20,North,-999,-999.0,-999.0,70,-99.99,,,-99.99,Acu-Link.com,2013-12-15 03:44:00,
2013-12-14 23:00:00,10.2,2.4,30.18,North,-999,-999.0,-999.0,70,-99.99,,,-99.99,Acu-Link.com,2013-12-15 04:00:00,
2013-12-14 23:15:00,10.4,2.6,30.17,North,-999,-999.0,-999.0,70,-99.99,,,-99.99,Acu-Link.com,2013-12-15 04:15:00,
2013-12-14 23:30:00,10.4,2.6,30.15,North,-999,-999.0,-999.0,70,-99.99,,,-99.99,Acu-Link.com,2013-12-15 04:30:00,
2013-12-14 23:45:00,10.6,2.8,30.12,North,-999,-999.0,-999.0,70,-99.99,,,-99.99,Acu-Link.com,2013-12-15 04:45:00,